CAPE
4349 4429 4207 4115 3961 4250 4207 4266 4086 3632 3650 3389 3311 3205 3412 3211 2914 3131 3078 2966 2848 2783 2977 3062 3351 3602 3286 3468 2739 2803 3491 3448 3296 3589 4164 4041 3693 3433 3136 3457 3435 2693 2430 2147 1888 2003 1553 1023 1110 1435 1258 1027 1004 949 779 783 888 515 423 555 462 615 680 562 690 498 780 444 40 97 128 73 226 100 235 326 1148 895 536 617 539 655 656 525 728
4360 4531 4236 3976 3896 4138 4152 4195 4371 3995 3802 3470 3371 3364 3567 3712 3361 3337 3208 3273 3195 2911 3363 3370 3301 3489 3560 3527 3445 2914 3503 3653 3310 3548 4039 4172 3694 3438 3373 3492 3519 3026 2743 2539 2334 2073 1975 1508 1169 1197 1433 1061 1028 943 770 764 806 590 469 484 658 707 645 699 530 643 501 696 454 144 137 176 68 569 330 172 292 552 1099 988 620 496 532 444 270
4109 4498 4186 3930 4069 4162 4205 4409 4472 4246 3965 3633 3631 3319 3446 3878 3925 3659 3454 3352 3601 3353 3302 3553 3892 3700 3704 3731 3921 3556 3659 3717 3672 3503 3905 4151 3820 3423 3430 3488 3359 3107 2898 2622 2434 2312 2043 1925 1532 1327 1284 1197 1070 962 680 722 787 625 498 499 742 719 791 750 853 653 456 582 871 764 255 313 170 294 509 535 606 454 426 707 531 514 572 443 335
3830 4427 4373 4169 4172 4238 4381 4198 4247 4146 3936 3698 3559 3265 3154 3482 3956 3976 3760 3405 3499 3795 3372 3569 4016 4166 3784 3773 3951 4077 3775 3605 3823 3665 3904 4251 4127 3836 3514 3663 3677 3373 3067 2835 2670 2514 2286 2152 1998 1561 1282 1313 1112 1116 896 744 958 924 589 686 829 838 886 1018 897 898 724 394 636 720 786 320 388 246 410 585 454 393 508 606 495 418 404 604 559
3576 4138 4171 3958 4000 4100 4256 4112 4128 3800 3712 3462 3185 3018 2950 2949 3450 3900 3909 3526 2993 3586 3871 3738 4092 4406 4133 3936 3884 4194 4145 4026 4219 3958 3851 4237 4434 4142 3624 3726 3819 3747 3287 3007 2890 2918 2706 2408 2359 2096 1545 1462 1327 1127 1017 1009 920 915 871 800 904 957 884 1048 1161 936 841 779 732 976 840 703 694 639 353 454 631 623 755 760 604 744 766 509 366
3252 3942 3933 3760 3930 4188 4334 4070 3870 3841 3446 3130 2954 2803 2745 2652 2842 3656 3831 3728 3032 2808 3919 3943 3867 4451 4474 4127 4090 4258 4577 4551 4482 4340 3885 3963 4319 4292 3927 3677 3858 3955 3672 3171 3150 3076 3058 2694 2512 2504 1920 1579 1490 1295 1246 1134 1094 973 1035 1086 1080 1189 1134 997 1204 1272 1000 778 841 878 936 768 916 897 781 466 538 645 728 807 820 725 831 952 601
3412 3756 3972 3592 3965 4260 4535 4314 3881 3548 3543 3182 2867 2749 2566 2467 2488 2863 3643 3652 3339 2722 2932 4154 4150 4290 4676 4617 4318 4394 4645 4569 4673 4641 4298 4058 4289 4452 3983 3734 3685 3976 3840 3519 3277 3242 3184 3048 2796 2604 2460 1947 1672 1580 1454 1281 1180 1195 1261 1254 1223 1285 1246 1146 1148 1199 1213 975 842 764 848 847 984 958 865 814 737 683 748 950 1216 1182 1577 1295 1209
3322 3829 4058 3924 4196 4373 4692 4640 4248 3996 3690 4019 3524 2918 2734 2516 2779 2620 3242 3748 3586 3058 2523 3392 4225 4218 4651 4630 4509 4584 4700 4771 4896 5107 4913 4323 4160 4442 4349 3653 3613 3816 3887 3864 3538 3353 3410 3306 2869 2663 2692 2509 1985 1835 1703 1534 1342 1354 1228 1238 1288 1215 1224 1159 1148 1159 1148 913 849 838 702 913 972 869 1000 1052 1000 1021 943 884 1022 1174 1436 1758 1418
3578 3865 4203 4296 4528 4743 4969 5003 4580 4303 3902 4351 3987 3442 3087 3105 3160 3081 3211 3576 3682 3439 3061 2465 3781 4448 4462 4825 4821 4538 4598 4902 4800 5024 5101 4864 4409 4263 4481 3903 3547 3596 3832 3824 3637 3231 3144 3328 3180 2848 3038 2728 2058 1895 1678 1448 1499 1488 1591 1436 1490 1330 1298 1237 1322 1313 1168 894 837 848 819 751 823 958 783 1175 1328 1376 1362 1015 823 804 1430 1492 2228
4097 3996 4220 4589 4786 5098 5316 5302 5136 4835 4188 4410 4802 3999 3215 3292 2992 2948 3191 3333 3715 3819 3736 3182 2925 4035 4560 4778 4936 4778 4594 4878 4662 4403 4618 5049 4702 4306 4428 4425 3825 3539 3764 3776 3491 3302 2889 2813 3059 2719 2710 2573 2277 1893 1687 1510 1363 1624 1823 1673 1631 1613 1425 1347 1389 1400 1261 988 808 830 721 696 674 787 690 974 1429 1316 857 937 986 1182 1700 1530 1501
4044 3900 4464 4901 5035 5264 5512 5535 5370 5360 4963 4465 4758 4816 4008 3638 3655 4034 3969 3682 3956 4525 4121 3606 3188 3022 4080 4628 4822 4853 4922 4642 4470 4348 4366 4573 4662 4568 4398 4587 4401 3809 3656 3820 3544 3111 2985 2678 2748 3118 2686 2563 2390 2123 1811 1622 1359 1283 1413 1556 1627 1697 1539 1416 1353 1400 1329 1096 950 863 774 781 731 717 656 617 851 1087 902 1046 1372 1230 1350 1441 1318
3668 4389 4645 4969 5274 5432 5516 5554 5490 5452 5284 5014 5054 5010 4533 4133 4294 4376 4032 3955 4650 3979 4034 3958 4124 3387 3260 4171 4649 4860 4972 4552 4237 4245 4230 4282 4211 4741 4420 4285 4444 4181 3660 3453 3669 3283 2842 2748 2716 2839 3159 2940 2812 2348 2052 1788 1569 1336 1228 1387 1419 1421 1339 1539 1522 1411 1355 1167 1002 932 764 758 840 809 574 501 718 956 1256 1052 1506 1451 1597 1512 1183
3847 4680 4541 4774 5248 5478 5595 5674 5696 5596 5498 5216 5094 5101 5049 4624 4265 4244 4239 4446 4344 4615 4726 4429 4345 4098 3586 4056 4380 4663 4806 4415 4124 4037 3991 3961 3840 3794 4194 4177 4175 4240 4032 3674 3524 3613 3221 2832 2702 2767 2713 2588 2642 2778 2424 2006 1810 1595 1406 1213 1235 1369 1234 1050 1200 1515 1269 1261 1101 1033 865 855 828 745 556 688 946 1180 1146 815 1046 1140 1500 1305 1020
3890 4208 4612 4751 5199 5508 5736 5662 5692 5612 5576 5353 5121 5204 5204 4978 4423 4183 4266 4589 4581 4651 4512 4658 4622 4770 4347 4191 4450 4517 4846 4392 4108 3858 3816 3714 3582 3426 3845 4029 4141 4127 4128 3981 3658 3588 3572 3190 2940 2765 2834 2976 2961 3027 2824 2435 1934 1755 1604 1471 1586 1364 1212 1080 987 995 1359 1215 1239 1220 1166 1037 1224 983 1065 935 906 1173 1143 1357 1307 1386 1645 1200 1245
4298 4433 4546 4805 5207 5502 5724 5603 5675 5642 5669 5516 5285 5151 5170 5172 4786 4370 4254 4412 4659 4800 4725 4640 4760 4871 4514 4071 3966 3973 4496 4384 4204 3905 3602 3500 3382 3159 3636 3453 3714 4153 4171 4162 4065 3685 3753 3608 3204 2906 3146 3514 3179 2846 2980 2720 2329 1822 1696 1538 1442 1344 1511 1328 1140 982 1140 959 1114 1204 1232 1063 1280 937 829 1277 1345 1358 1094 1092 1049 1043 958 1336 1694
4007 4444 4703 4812 5130 5518 5618 5650 5565 5610 5599 5497 5357 5163 5231 5310 5179 4719 4343 4322 4451 4638 4895 4688 4677 4517 4574 4400 3930 4107 4144 3922 4098 4054 3729 3335 3215 3083 3439 3569 3481 3762 4166 4260 4214 4132 3876 3744 3703 3291 3358 3787 3118 2434 2608 2853 2576 2262 2015 1825 1608 1428 1314 1162 925 772 814 629 565 805 913 672 686 945 1134 1414 1628 1443 1148 1015 1771 2040 1690 1383 928
3603 4503 4815 4846 4963 5351 5322 5467 5480 5487 5413 5311 5297 5215 5237 5334 5207 4981 4494 4242 4329 4494 4660 4656 4708 4609 4574 4563 4504 4289 4211 4252 3826 3931 3860 3570 3145 2958 3335 3564 3573 3589 3840 4090 4266 4290 4142 3944 3884 3647 3542 3823 3573 2701 2218 2385 2765 2584 2312 2053 1822 1637 1456 1263 1031 881 820 753 700 662 727 762 629 738 990 823 1991 1604 1246 913 908 877 881 674 529
3930 4473 5017 5001 5098 5115 5194 5344 5388 5336 5408 5318 5372 5054 4971 4984 5090 4884 4693 4319 3908 4109 4486 4678 4694 4664 4506 4563 4181 4670 4518 5416 3798 3774 3704 3606 3335 3015 3326 3566 3612 3655 3643 3728 3942 4229 4260 3677 3687 3772 3724 3914 3537 2955 2287 2143 2966 2840 2653 2372 2111 1841 1565 1346 1194 1048 935 933 894 900 938 961 740 718 636 514 564 902 1127 712 572 235 170 360 387
3744 3966 4894 5075 4915 4909 5071 5165 5255 5279 5319 5157 5041 5082 4831 4961 4922 4770 4677 4520 4214 3982 3924 4301 4608 4717 4658 4518 4193 4331 4540 4489 4131 3812 3694 3557 3388 3215 3446 3506 3594 3668 3606 3683 3712 3991 4377 3819 3361 3417 3668 3677 3528 3184 2618 2224 2954 3041 2842 2505 2251 2075 1773 1553 1246 1137 1092 1074 1062 990 1058 987 762 964 897 386 473 905 763 585 384 144 68 41 34
4068 4138 4536 4983 5046 4932 4878 5255 5413 5168 5066 4988 4839 4896 4843 4830 4934 4773 4728 4414 4299 4219 3862 3829 4293 4582 4638 4298 4493 4219 4268 4618 4036 4112 3882 3652 3460 3260 3605 3616 3565 3620 3702 3621 3766 3940 3977 4149 3389 2940 2991 3168 3357 3246 3063 2296 2617 2996 2924 2476 2362 2190 1923 1558 1546 1158 1291 1193 1223 1188 1189 1022 912 902 1209 534 447 846 820 486 334 369 171 71 52
4356 4566 4652 4675 4692 4817 4854 5064 5057 4851 4834 4835 4656 4583 4732 4615 4503 4700 4682 4480 4402 4492 4296 4044 3896 4116 4233 4420 4646 4505 4268 4520 3919 3926 3986 3898 3642 3380 3725 3790 3684 3629 3702 3647 3572 3672 3756 3341 3629 3087 2775 2705 2857 3071 3070 2771 2245 2776 2892 2731 2616 2358 1756 1632 1735 1079 1436 1196 1175 1241 1137 866 862 757 790 880 492 388 368 361 358 241 58 28 0
4310 4680 4811 4665 4560 4605 4607 4802 4978 4682 4681 4776 4782 4665 4679 4714 4553 4714 4557 4640 4710 4566 4605 4387 4197 4040 3882 3994 4305 4524 4395 4100 5223 3883 3860 3867 3829 3656 3402 3849 3650 3616 3660 3776 3626 3557 3594 3758 3801 3191 2752 2573 2512 2850 2932 2754 2528 2078 2881 2510 2258 1838 1671 1896 1723 1157 1313 1079 1143 974 730 466 542 574 369 731 492 202 102 141 293 124 65 6 22
4432 4853 5013 4716 4469 4416 4483 4595 4775 4677 4607 4773 4959 4810 4758 4692 4679 4758 4804 4638 4656 4611 4672 4515 4286 3906 3644 3851 3801 4029 4415 4523 3773 3709 3732 3806 3730 3587 3480 3414 3097 3712 3566 3534 3682 3688 3612 3567 3442 2986 2801 2579 2411 2598 2675 2644 2582 2325 2156 2134 2001 1780 1562 1734 1699 1214 1019 901 853 817 624 340 284 256 260 415 441 334 186 177 136 46 87 4 4
5025 4990 4813 4522 4362 4266 4284 4368 4649 4610 4633 4747 4937 5205 5031 4842 4825 4825 4922 4760 4528 4374 4356 4131 4160 3910 3886 3737 3583 3473 4177 4473 4192 3665 3514 3724 3670 3552 3362 3196 3099 3330 3500 3550 3590 3621 3526 3572 3374 2791 2755 2580 2416 2272 2393 2436 2411 2313 2020 1961 1852 1653 1485 1677 1629 1226 996 934 834 731 560 379 230 245 291 225 84 485 306 16 26 12 4 4 9
4990 4924 4794 4529 4314 4009 4172 4484 4683 4791 4746 4820 4883 4841 4972 4819 4803 4830 4838 4474 4204 3976 3977 3752 4238 4068 4069 3936 3970 3811 3453 3617 3314 4163 3232 3178 3278 3290 3090 3164 3036 2944 2946 3240 3076 3300 3131 3069 2971 2828 2656 2540 2472 2181 2203 2308 2347 2236 1914 1633 1706 1499 1377 1453 1354 1056 1006 906 812 650 488 570 217 384 318 369 306 585 438 116 4 0 2 6 3
4464 4545 4442 4435 4336 4080 4361 4467 4581 4476 4359 4342 4558 4720 4757 4639 4433 4582 4449 4420 4386 4325 4110 3560 3614 3809 3861 4014 4368 4280 4910 4470 4558 4900 3713 3612 3556 3373 3331 3220 3200 3148 3041 2942 2887 2799 2766 2889 2879 2864 2769 2620 2502 2348 2153 2161 2212 2089 1835 1509 1452 1357 1354 1330 1172 1067 1048 947 736 627 447 557 358 325 426 753 491 560 192 62 10 0 0 0 8
4343 4388 4406 4111 4070 3863 3728 3625 3752 4199 4380 4320 4386 4423 3985 3852 4342 4430 4232 4066 4148 4075 4063 3911 3786 3583 3616 3633 3623 3828 4217 4039 4159 3971 4808 3480 3688 3621 3533 3422 3385 3368 3368 3260 3138 3027 2897 2738 2656 2586 2824 2768 2600 2583 2496 2140 1992 1826 1779 1535 1353 1332 1354 1343 1204 1062 1078 901 738 635 428 505 249 312 638 599 518 654 130 146 2 0 0 0 0
4259 4356 4333 4501 4345 4439 4344 4313 4305 4447 4449 3949 3802 3890 3963 4106 4157 4206 4243 4151 4136 4048 4048 3916 3721 3692 3793 3844 3543 3580 3826 3884 4010 3468 3252 3264 3327 3479 3564 3542 3505 3460 3384 3377 3276 3150 3008 2907 2771 2730 2568 2622 2626 2496 2494 2341 1968 1659 1612 1418 1322 1325 1339 1343 1179 1049 1027 900 796 602 323 222 238 314 258 249 146 166 57 11 0 0 0 0 0
4849 4728 4698 4669 4561 4356 4382 4144 4306 4280 4131 3501 4547 4805 4550 3926 6661 4252 3510 3597 3640 3788 4013 4124 4075 3768 3659 3561 3625 3711 3669 3619 3752 3768 3631 3501 3389 3357 3375 3389 3304 3338 3454 3504 3555 3292 3024 2855 2867 2696 2620 2569 2384 2314 2345 2362 2299 1830 1305 1278 1315 1274 1270 1325 1171 1032 1008 867 743 539 291 306 250 140 74 45 128 48 62 17 0 15 1 0 0
4726 4589 4588 4381 4022 3918 4103 3948 4091 3954 3834 3816 4433 3856 4118 3788 3811 4298 3722 3751 3656 3585 3521 3566 3559 3530 3405 3384 3273 3163 3069 3076 2902 2650 2675 2740 2813 2911 2953 3133 3119 3121 3194 3262 3256 3430 3292 3079 2959 2742 2605 2571 2493 2254 2114 2124 2213 2169 1476 1224 1170 1108 1167 1193 1115 1049 968 919 690 427 339 182 43 20 28 26 58 21 0 0 1 7 18 1 0
3152 3168 3194 3051 3196 3169 3510 3568 3415 3343 3434 3586 3574 3495 3487 3485 3438 3338 3387 3472 3536 3459 3446 3308 3130 3061 2650 1466 303 2 0 0 0 0 0 0 0 0 0 0 0 238 898 1540 2050 2584 2737 2932 2783 2755 2636 2494 2371 2103 2169 2008 1986 2112 1684 1090 1002 997 977 1055 1105 1065 968 800 508 384 212 87 6 2 12 1 1 0 0 0 8 0 0 0 0
2334 2094 2166 2555 2683 2558 2700 2713 2445 2311 2504 2537 2627 1367 1237 2005 2329 1908 1664 1684 1198 566 312 168 0 0 0 0 0 2 0 0 0 0 0 0 0 0 0 0 0 0 0 0 234 745 1152 1812 2418 2720 2650 2571 2491 2362 2140 1984 1862 1996 1872 1307 902 886 945 967 1058 1027 930 626 408 271 122 47 0 0 0 0 0 0 0 0 0 0 0 0 0
2146 2016 1978 1957 1915 1829 1922 2034 1860 1754 1793 1952 1955 1616 1414 1484 1643 1335 1595 0 619 377 0 0 0 0 0 0 0 0 0 0 0 0 0 0 0 0 0 0 0 0 0 1 5 5 681 1005 1332 1882 2337 2531 2548 2392 2192 2062 1851 1717 1969 1734 1059 665 825 983 1022 970 750 438 261 118 69 19 0 0 0 0 0 0 2 0 0 0 0 0 0
1907 1771 1790 2035 2146 2148 1886 1742 1788 1938 1986 1970 1578 1164 1304 1285 1158 1292 1466 2302 2397 1405 570 161 0 0 0 0 0 0 0 0 0 0 0 0 0 0 0 0 0 0 0 2 8 7 148 748 970 1153 1448 1937 2156 2164 2235 2111 1713 1525 1361 1072 1331 802 752 976 1017 840 479 268 111 75 34 10 0 0 0 0 0 0 2 0 0 0 0 0 0
1486 1459 1621 1788 1942 1893 1810 1713 1873 1971 2015 1876 1535 1423 1375 1392 1297 964 853 717 623 838 850 1902 752 0 62 0 0 0 0 0 0 0 0 0 0 0 0 0 0 0 0 2 2 12 12 7 430 800 910 1076 1411 1694 1800 1798 1454 1294 1150 954 570 564 684 880 692 517 295 38 118 64 41 11 2 0 0 0 0 2 0 0 0 0 0 0 0
1485 1336 1312 1328 1323 1282 1303 1385 1469 1541 1582 1446 1210 1087 913 983 1009 1072 778 624 673 743 593 581 537 271 3 0 0 0 0 0 0 0 0 0 0 0 0 0 0 0 0 0 0 3 3 0 12 270 592 712 735 1155 1054 1025 1060 1155 1241 1150 403 346 436 282 277 46 143 21 38 24 32 9 0 0 0 0 0 0 0 0 0 0 0 0 0
1317 1328 1354 1362 1207 1025 977 1082 1083 1024 741 1015 1080 1025 908 770 676 658 609 445 365 409 367 522 412 314 298 250 15 0 0 0 0 0 0 0 0 0 0 0 0 0 0 0 0 0 1 7 13 73 283 442 535 585 690 560 563 627 643 508 355 274 255 82 0 0 1 13 20 25 26 14 1 0 0 0 0 0 0 0 0 0 0 0 0
1022 1004 1107 1019 1040 931 1040 930 1027 999 936 817 872 903 765 713 580 443 347 273 138 213 210 204 143 212 169 96 5 0 0 0 0 0 0 22 0 2 3 1 0 0 0 0 0 0 1 0 14 100 98 96 290 388 271 440 474 548 576 307 319 376 99 2 17 38 46 38 27 29 29 8 2 0 0 3 2 0 0 0 0 0 0 0 0
831 467 337 612 721 1005 906 921 711 782 652 594 623 615 503 486 461 343 251 157 130 178 263 145 163 84 40 13 3 0 37 174 42 2 3 18 108 60 14 4 4 0 0 1 0 2 25 4 4 16 31 27 47 203 280 266 426 497 317 250 280 48 4 10 19 33 49 32 18 14 12 9 4 9 11 9 7 0 0 0 0 0 0 0 0
950 893 577 388 610 518 692 693 664 566 502 484 466 498 529 494 425 352 209 138 269 296 375 170 62 123 62 0 0 0 71 70 26 0 2 3 39 43 90 93 103 83 28 8 0 0 0 0 0 0 2 2 39 128 214 303 185 21 153 107 22 16 4 0 21 41 55 39 26 33 25 18 20 20 11 14 3 5 13 2 0 0 0 0 0
225 322 502 430 360 510 494 462 478 554 480 423 373 353 346 332 284 238 217 126 243 378 326 229 139 211 75 0 0 0 70 107 2 0 1 1 3 18 65 82 30 0 0 0 2 0 0 0 0 0 6 6 19 37 20 132 96 17 25 8 13 34 26 42 49 48 50 37 43 38 36 33 32 32 25 21 7 6 0 0 0 0 0 0 0
500 432 476 502 477 489 426 364 358 305 380 389 193 157 155 152 182 110 150 187 142 192 203 91 163 239 142 0 0 0 233 88 0 7 1 0 1 1 3 8 13 3 1 50 1 0 0 0 0 0 0 0 25 62 81 89 70 84 72 62 60 55 57 56 58 62 63 69 58 54 59 55 48 40 27 0 1 0 0 0 0 0 0 0 0
533 546 476 370 446 447 390 256 203 158 128 192 119 55 63 48 110 89 212 86 58 30 80 94 41 78 194 4 0 0 48 10 3 90 1 1 1 1 2 2 3 5 4 3 0 2 0 0 0 0 0 0 0 3 12 21 29 32 30 36 27 27 35 44 59 59 66 71 77 54 52 40 47 43 7 11 0 0 0 0 0 0 0 0 0
501 430 447 491 530 374 257 166 155 128 114 108 74 15 3 66 25 64 70 67 25 30 70 33 14 24 114 816 212 46 12 1 1 1 196 59 1 2 3 25 8 32 16 4 1 16 18 13 6 3 4 6 13 15 17 15 14 16 15 23 22 33 46 53 76 87 85 71 47 42 58 48 44 33 13 0 0 0 0 0 0 0 0 0 0
318 376 355 359 347 436 381 336 99 206 104 150 142 87 29 30 52 16 1 7 10 6 12 10 6 21 35 106 82 37 17 30 6 0 1 25 22 56 15 44 71 56 45 16 38 46 47 29 16 13 11 9 16 19 27 31 36 38 36 36 29 32 34 51 70 79 71 68 31 48 38 32 36 5 2 0 0 0 0 0 0 0 0 0 0
142 137 92 79 64 78 100 110 85 73 48 39 38 49 32 12 20 27 11 13 34 20 4 8 37 35 40 70 65 42 25 23 12 2 1 3 2 46 98 132 31 23 4 16 31 36 40 53 42 36 26 19 12 8 20 26 35 47 51 49 48 53 52 45 50 49 49 35 28 13 18 28 3 0 1 1 0 0 0 0 0 0 0 0 0
49 34 12 13 12 11 15 12 17 25 17 6 5 4 3 3 2 2 3 3 3 10 50 68 31 18 38 37 50 73 32 10 4 2 3 4 3 0 2 4 1 5 12 6 8 6 10 8 10 11 14 14 15 17 13 11 8 4 5 5 1 3 0 0 4 6 2 0 0 0 0 0 0 0 0 0 0 2 0 0 0 0 0 0 0
2 0 0 0 2 6 7 6 6 6 9 8 6 5 4 4 5 4 4 3 2 3 3 13 28 28 7 18 69 65 111 65 18 17 47 17 7 8 15 21 31 25 25 24 26 13 6 6 14 18 21 23 28 26 20 16 5 0 0 0 0 0 0 5 4 2 0 0 0 0 0 0 0 0 0 0 0 0 0 0 0 0 1 0 0
0 0 0 0 1 3 6 8 9 8 9 10 7 4 4 4 4 3 2 3 3 3 2 3 3 28 2 0 7 102 137 23 20 22 16 19 23 13 24 28 52 65 26 27 30 34 33 28 30 31 30 26 24 0 0 0 0 0 0 0 0 0 0 0 0 0 0 0 0 0 0 0 0 0 0 0 0 0 0 1 3 2 2 1 0
0 0 0 0 0 2 6 5 3 2 4 3 6 4 4 3 0 0 2 2 3 3 3 33 2 2 19 4 0 1 0 0 4 6 3 2 0 1 5 46 45 50 53 56 44 19 15 3 0 0 0 0 0 0 0 0 0 0 0 0 0 0 0 0 0 0 0 0 0 0 0 0 0 0 0 1 4 2 1 4 5 3 1 0 0
0 0 0 0 0 0 0 0 0 0 0 0 0 0 3 1 0 0 1 1 1 2 2 1 23 23 3 2 0 0 0 0 0 0 0 0 2 18 15 23 38 37 43 46 34 37 47 37 0 0 0 0 0 0 0 0 0 0 0 0 0 0 0 0 0 0 0 0 0 0 0 0 0 0 0 2 5 4 2 2 4 2 0 0 0
Wind_Speed
17 16 16 15 15 16 15 15 14 13 13 13 12 12 13 13 13 13 14 13 13 14 13 12 13 13 13 14 14 15 18 20 20 19 16 14 13 11 10 12 12 11 11 12 12 12 12 12 13 16 16 16 15 15 16 18 17 17 18 18 18 18 16 15 13 13 14 15 nan nan 20 nan 24 24 22 24 29 29 28 26 27 27 28 28 32
15 16 16 16 16 16 16 15 15 15 14 14 13 13 13 13 14 14 14 15 14 14 15 14 14 14 14 15 14 15 18 20 21 20 18 16 14 12 10 12 12 12 12 11 12 11 11 13 14 16 17 16 16 17 18 20 21 20 20 19 18 17 16 14 13 13 13 17 17 17 18 23 nan 27 26 26 26 29 30 29 29 28 27 28 28
14 15 16 16 16 16 17 16 17 16 15 15 14 14 14 14 16 15 15 15 16 14 15 15 16 15 15 15 15 15 17 20 20 20 19 17 15 13 13 12 13 13 13 12 12 12 12 13 15 16 16 17 18 19 19 19 20 20 21 19 16 15 15 15 14 14 14 14 18 19 20 21 23 24 26 26 26 26 27 29 28 29 30 29 29
15 15 15 16 17 18 17 17 18 18 16 15 15 15 14 15 17 17 17 17 17 17 15 16 16 16 16 16 16 16 17 19 21 20 19 17 15 14 14 13 13 13 13 13 13 13 14 15 16 17 18 19 20 20 19 17 18 20 21 19 16 14 14 16 16 15 16 16 18 19 21 22 24 23 25 28 28 29 29 28 28 26 27 31 32
16 16 16 17 18 17 18 18 18 18 17 16 16 16 16 16 18 18 19 18 18 19 18 17 17 17 17 17 16 17 18 19 21 21 19 17 15 14 14 14 14 14 14 13 13 14 15 16 17 18 19 20 21 21 20 19 19 21 21 19 17 15 14 16 19 19 17 18 17 20 19 21 23 25 27 29 31 30 31 30 29 30 30 30 29
18 18 18 18 18 19 18 18 17 18 17 16 16 17 17 17 18 19 19 19 19 19 21 19 18 18 18 18 17 18 19 20 21 22 20 18 15 13 13 15 16 16 15 14 14 14 15 17 18 19 20 21 22 22 22 22 20 21 21 19 18 18 18 18 19 21 20 19 18 19 23 21 24 25 29 30 31 33 32 32 31 30 32 32 31
19 20 21 20 19 19 19 19 17 17 17 16 16 17 17 18 18 20 21 20 20 19 20 20 20 19 19 19 18 19 20 20 21 21 19 17 15 13 13 14 16 16 16 16 15 15 15 17 18 20 21 22 22 23 24 23 21 22 22 21 20 20 20 20 21 22 22 22 21 21 21 25 26 28 30 31 32 32 33 33 32 33 33 34 33
20 21 22 22 20 20 20 20 18 17 17 17 17 17 18 18 19 19 20 20 19 19 18 20 20 20 20 19 20 20 20 20 20 20 19 17 15 14 12 13 15 17 17 17 16 15 16 17 18 20 22 23 23 23 24 24 22 22 22 22 21 21 21 21 22 23 23 24 24 25 25 24 29 29 31 33 34 35 35 35 34 34 35 35 35
21 21 22 22 21 21 21 21 20 18 17 17 17 17 18 18 19 18 18 18 17 17 17 16 19 19 18 19 20 20 18 17 17 18 18 17 14 13 14 13 14 16 18 18 18 17 16 17 18 19 23 24 26 24 24 24 23 23 23 23 23 22 22 22 23 23 24 24 25 25 26 28 29 31 34 36 38 39 39 38 36 36 36 37 38
21 20 20 21 22 22 22 23 22 20 18 16 17 18 18 19 19 18 16 16 16 16 15 14 14 16 16 17 17 16 15 14 15 19 19 17 16 13 14 14 14 15 17 18 19 19 17 16 18 21 24 26 27 27 26 25 24 23 23 23 24 25 25 25 25 25 25 26 26 28 30 30 31 32 34 37 38 39 40 41 40 39 39 37 39
18 18 18 20 22 22 22 22 23 22 19 17 17 18 18 18 17 16 14 13 13 13 12 11 10 10 13 13 13 13 12 11 17 20 21 21 17 15 15 15 16 16 17 18 19 19 19 18 16 23 24 25 26 29 27 26 25 23 23 25 25 28 29 29 28 28 28 27 28 29 30 32 32 33 35 36 39 40 42 43 42 41 40 40 39
16 16 17 19 21 21 22 22 22 21 19 17 18 19 18 16 14 13 12 11 10 8 8 7 6 7 8 11 12 11 10 13 20 21 22 23 21 18 16 16 17 18 18 18 18 19 19 18 18 19 23 24 25 27 28 29 27 25 23 24 27 29 29 30 30 31 31 30 29 30 31 32 33 34 35 37 39 41 41 43 44 42 43 42 39
17 17 17 18 19 20 22 22 20 20 18 18 17 18 17 15 13 11 10 9 7 6 5 6 7 7 7 9 11 11 9 14 20 23 23 24 24 22 18 17 18 19 20 20 20 20 19 20 19 20 20 27 25 26 28 28 29 29 26 24 24 29 30 29 28 31 32 31 31 31 32 32 34 35 36 36 39 40 43 42 45 45 44 42 41
18 18 18 18 19 20 21 21 19 19 19 18 17 16 14 12 11 10 9 8 7 6 6 5 5 5 5 5 6 7 9 13 20 22 23 24 25 23 18 18 17 17 18 19 20 20 20 20 21 20 20 26 28 26 27 28 31 30 27 24 23 26 29 31 31 31 30 33 34 32 34 35 34 36 39 38 40 41 43 45 44 42 44 44 44
17 18 19 18 19 20 20 20 19 20 20 19 16 14 12 11 10 9 9 8 8 6 5 5 4 5 6 5 3 4 6 14 20 23 24 25 25 24 21 20 19 17 17 18 18 19 19 19 20 20 21 23 28 28 28 29 31 32 30 27 25 26 29 32 34 35 36 36 37 37 36 37 36 37 39 42 42 43 43 44 48 49 47 47 46
16 18 18 19 19 19 20 19 19 20 20 18 16 14 13 12 11 11 11 10 9 8 7 6 6 7 7 7 6 5 5 16 21 24 27 28 30 25 23 22 21 20 20 20 20 20 20 20 21 22 23 23 29 32 31 31 32 33 33 31 29 27 28 31 36 38 38 39 39 38 38 38 40 39 43 45 43 45 45 46 48 50 48 46 45
16 16 16 18 18 19 19 19 19 19 19 18 15 14 14 14 14 15 14 12 12 11 10 10 11 11 11 11 11 9 8 19 23 24 27 32 33 28 28 27 26 25 24 24 24 24 24 25 25 25 26 26 33 35 35 36 32 35 36 35 33 32 30 34 39 41 41 39 40 40 46 47 46 52 54 50 45 46 48 47 49 51 51 50 49
17 15 14 16 17 18 18 18 19 19 19 18 17 16 17 17 18 19 18 17 15 14 14 14 14 15 15 15 16 16 15 24 27 27 29 34 36 33 32 32 30 29 28 27 27 27 28 32 34 31 31 31 41 42 41 39 35 36 38 40 39 35 35 37 40 42 45 45 49 52 52 54 53 52 55 55 52 49 50 50 50 52 52 53 50
18 15 14 16 17 18 18 18 19 20 20 19 19 20 21 21 22 23 21 20 19 18 18 18 18 18 19 19 21 21 19 25 33 32 33 36 35 34 36 35 34 32 33 33 32 32 31 34 37 38 37 37 49 48 47 45 40 40 41 42 42 40 40 41 39 43 47 49 52 53 53 55 55 52 52 55 55 52 50 50 52 52 nan nan nan
18 16 16 17 17 18 18 18 19 19 20 21 22 23 24 24 25 26 25 24 23 22 22 22 22 22 23 23 25 25 23 26 37 37 39 39 40 37 38 40 38 37 38 37 37 36 36 35 39 38 40 42 53 53 51 50 45 44 44 45 44 42 45 45 43 43 49 48 50 53 53 55 54 53 53 53 53 53 52 51 52 51 52 nan nan
19 18 18 17 16 16 17 17 18 19 20 22 24 25 25 26 26 26 26 26 26 26 26 26 26 26 25 26 26 27 28 27 38 43 42 42 42 42 41 42 41 42 41 39 38 39 39 37 38 43 42 44 53 54 55 54 50 48 47 44 46 49 51 48 50 48 50 48 48 51 51 52 53 52 52 53 54 55 54 52 53 53 nan nan nan
20 20 20 18 17 17 17 18 19 20 21 23 24 24 25 26 27 28 28 29 29 29 30 29 29 29 29 28 25 24 26 29 32 40 39 41 41 42 40 40 42 43 42 39 39 41 42 42 40 46 48 47 53 56 56 57 56 54 52 50 55 60 56 52 54 55 53 52 50 51 51 51 53 54 53 54 55 56 55 55 56 55 nan nan nan
23 23 23 22 21 22 22 22 22 22 23 23 23 24 25 26 27 28 28 28 28 27 28 28 29 27 27 27 26 25 25 28 30 38 40 41 41 40 37 37 42 45 42 38 39 43 45 42 41 46 53 50 54 57 58 59 58 55 58 61 65 65 60 57 58 60 58 57 53 53 53 52 54 55 52 54 55 55 55 55 58 nan nan nan nan
26 26 25 24 24 24 24 24 25 25 25 26 26 26 27 27 26 26 26 26 26 25 25 27 27 26 25 26 27 27 31 30 35 41 45 45 45 45 42 38 41 43 43 40 41 43 42 45 45 52 57 55 56 57 58 59 56 58 59 63 67 65 60 59 61 60 60 60 58 55 54 56 57 56 54 54 nan 58 55 nan nan nan nan nan nan
29 28 27 25 25 24 26 27 28 29 29 30 30 30 29 29 27 28 28 27 27 28 29 30 31 29 28 29 30 31 32 34 32 42 49 51 49 50 47 46 42 42 43 41 42 45 46 47 47 57 60 60 61 60 59 58 57 59 60 63 66 61 58 57 59 60 58 59 59 58 58 59 60 60 56 54 54 62 59 54 nan nan nan nan nan
30 30 29 28 28 28 30 31 32 33 33 33 34 35 34 33 32 32 32 32 32 32 33 33 33 33 33 34 37 37 39 38 38 40 53 51 51 51 52 51 50 49 47 44 43 45 47 48 51 60 63 66 65 63 59 57 58 61 63 66 64 63 61 58 60 59 59 60 60 59 61 64 64 60 54 55 59 62 60 nan nan nan nan nan nan
33 32 32 33 33 32 34 35 36 37 37 37 38 38 37 37 38 36 35 36 37 37 36 37 37 37 37 38 38 39 39 38 40 40 49 56 53 52 52 51 50 51 52 48 46 48 49 51 62 66 68 70 69 67 63 63 64 64 66 65 64 64 63 61 61 61 61 63 64 63 64 68 67 62 61 61 62 61 60 58 nan nan nan nan nan
37 37 37 38 38 38 38 41 42 41 39 40 41 41 41 41 40 41 40 40 39 38 39 40 41 42 43 43 40 39 38 39 40 49 55 56 52 53 56 56 56 58 55 54 54 55 56 58 69 72 73 72 69 69 67 69 69 69 71 69 68 66 65 63 65 64 62 63 67 69 69 69 67 66 62 62 60 59 nan nan nan nan nan nan nan
43 43 43 43 44 43 44 45 44 44 44 43 48 49 46 45 46 48 56 52 50 49 47 48 48 48 50 51 50 49 49 47 49 53 50 56 56 53 55 60 59 57 55 54 59 61 62 69 77 75 77 75 75 75 73 72 72 73 75 74 74 73 71 66 64 64 65 65 69 71 70 68 69 67 nan nan 63 nan nan nan nan nan nan nan nan
49 49 48 47 47 47 47 47 47 48 49 49 53 54 56 60 58 56 56 57 62 61 58 56 53 52 51 53 55 54 53 52 51 49 49 49 53 57 54 49 49 53 55 56 57 59 67 74 70 72 75 77 78 79 77 76 75 76 78 77 78 77 78 74 70 68 65 66 69 71 68 69 nan nan nan nan nan nan nan nan nan nan nan nan nan
48 49 48 50 52 52 54 54 51 52 52 54 52 52 54 58 61 66 64 62 64 66 67 65 61 56 56 54 55 nan nan nan nan nan nan nan nan nan nan nan nan 51 48 55 62 62 63 68 68 69 72 74 78 79 81 80 80 80 79 81 81 81 81 80 78 74 67 66 68 69 70 nan nan nan nan nan nan nan nan nan nan nan nan nan nan
46 47 48 49 50 51 51 52 52 51 50 49 51 51 52 55 57 58 62 67 68 69 68 66 nan nan nan nan nan nan nan nan nan nan nan nan nan nan nan nan nan nan nan nan 58 62 65 66 69 70 73 75 77 80 83 85 84 83 82 82 83 83 82 81 80 77 73 70 69 69 72 nan nan nan nan nan nan nan nan nan nan nan nan nan nan
49 49 50 51 51 52 51 51 51 51 51 52 52 52 54 55 58 60 59 nan 63 63 nan nan nan nan nan nan nan nan nan nan nan nan nan nan nan nan nan nan nan nan nan nan nan nan 63 66 68 70 73 75 78 80 85 87 88 86 83 83 83 83 83 84 84 79 76 74 73 74 nan nan nan nan nan nan nan nan nan nan nan nan nan nan nan
53 52 53 54 54 54 55 55 55 56 56 56 57 58 58 58 58 57 58 58 58 56 57 58 nan nan nan nan nan nan nan nan nan nan nan nan nan nan nan nan nan nan nan nan nan nan 62 64 68 72 75 79 83 86 88 89 89 88 86 85 87 87 85 85 85 83 79 75 73 nan nan nan nan nan nan nan nan nan nan nan nan nan nan nan nan
54 57 59 57 56 58 58 59 59 59 58 57 57 58 58 57 57 58 59 59 59 60 61 60 59 nan nan nan nan nan nan nan nan nan nan nan nan nan nan nan nan nan nan nan nan nan nan nan 69 73 79 85 91 93 93 94 92 89 84 81 84 88 88 84 85 86 82 nan 73 nan nan nan nan nan nan nan nan nan nan nan nan nan nan nan nan
52 53 56 58 59 60 60 60 59 58 57 56 56 56 56 57 58 60 61 62 62 62 63 62 60 60 nan nan nan nan nan nan nan nan nan nan nan nan nan nan nan nan nan nan nan nan nan nan nan 74 81 90 95 91 88 88 85 81 76 81 88 93 89 84 82 nan 79 nan nan nan nan nan nan nan nan nan nan nan nan nan nan nan nan nan nan
52 53 54 55 57 58 58 58 57 55 55 55 55 56 58 60 61 62 63 64 63 62 61 61 58 58 61 61 nan nan nan nan nan nan nan nan nan nan nan nan nan nan nan nan nan nan nan nan nan nan 81 88 83 72 70 71 73 77 72 72 83 88 78 nan nan nan nan nan nan nan nan nan nan nan nan nan nan nan nan nan nan nan nan nan nan
54 54 54 56 57 56 56 56 54 51 55 56 57 59 61 62 62 63 63 63 61 59 58 58 57 57 57 nan nan nan nan nan nan nan nan nan nan nan nan nan nan nan nan nan nan nan nan nan nan 70 nan nan 56 52 50 55 62 64 62 58 62 70 nan nan nan nan nan nan nan nan nan nan nan nan nan nan nan nan nan nan nan nan nan nan nan
57 54 52 52 57 56 56 56 56 57 58 59 61 61 61 60 60 60 60 58 56 54 53 53 55 nan nan nan nan nan nan 55 nan nan nan nan 52 nan nan nan nan nan nan nan nan nan nan nan nan nan nan nan nan 38 43 45 46 52 57 57 62 nan nan nan nan nan nan nan nan nan nan nan nan nan nan nan nan nan nan nan nan nan nan nan nan
56 57 54 54 57 58 58 59 59 60 60 60 60 60 59 58 58 57 58 55 52 50 49 50 nan 52 nan nan nan nan nan nan nan nan nan nan nan nan nan nan 53 nan nan nan nan nan nan nan nan nan nan nan nan 27 26 29 30 nan 50 55 nan nan nan nan nan nan nan nan nan nan nan nan nan nan nan nan nan nan nan nan nan nan nan nan nan
59 58 59 58 58 59 60 60 61 61 61 59 58 59 60 59 59 59 58 55 54 52 50 51 50 52 nan nan nan nan nan 54 nan nan nan nan nan nan nan nan nan nan nan nan nan nan nan nan nan nan nan nan nan nan nan 32 nan nan nan nan nan nan nan nan nan nan nan nan nan nan nan nan nan nan nan nan nan nan nan nan nan nan nan nan nan
58 59 59 60 60 60 60 60 61 61 60 60 60 60 60 61 62 61 61 58 56 54 52 nan 54 53 58 nan nan nan 51 nan nan nan nan nan nan nan nan nan nan nan nan nan nan nan nan nan nan nan nan nan nan nan nan nan nan nan nan nan nan nan nan nan nan nan nan nan nan nan nan nan nan nan nan nan nan nan nan nan nan nan nan nan nan
62 62 62 62 61 60 60 60 58 58 58 58 58 nan nan nan 59 nan 60 nan nan nan nan nan nan nan 56 nan nan nan nan nan nan nan nan nan nan nan nan nan nan nan nan nan nan nan nan nan nan nan nan nan nan nan nan nan nan nan nan nan nan nan nan nan nan nan nan nan nan nan nan nan nan nan nan nan nan nan nan nan nan nan nan nan nan
64 63 63 62 61 60 59 58 58 57 57 56 nan nan nan nan nan nan nan nan nan nan nan nan nan nan 54 55 54 nan nan nan nan nan 54 nan nan nan nan nan nan nan nan nan nan nan nan nan nan nan nan nan nan nan nan nan nan nan nan nan nan nan nan nan nan nan nan nan nan nan nan nan nan nan nan nan nan nan nan nan nan nan nan nan nan
66 64 63 62 62 62 61 59 nan 57 56 56 56 nan nan nan nan nan nan nan nan nan nan nan nan nan nan 51 nan nan nan nan nan nan nan nan nan nan nan nan nan nan nan nan nan nan nan nan nan nan nan nan nan nan nan nan nan nan nan nan nan nan nan nan nan nan nan nan nan nan nan nan nan nan nan nan nan nan nan nan nan nan nan nan nan
66 64 nan nan nan nan nan 58 nan nan nan nan nan nan nan nan nan nan nan nan nan nan nan nan nan nan nan nan nan nan nan nan nan nan nan nan nan nan nan 35 nan nan nan nan nan nan nan nan nan nan nan nan nan nan nan nan nan nan nan nan nan nan nan nan nan nan nan nan nan nan nan nan nan nan nan nan nan nan nan nan nan nan nan nan nan
nan nan nan nan nan nan nan nan nan nan nan nan nan nan nan nan nan nan nan nan nan nan nan nan nan nan nan nan nan nan nan nan nan nan nan nan nan nan nan nan nan nan nan nan nan nan nan nan nan nan nan nan nan nan nan nan nan nan nan nan nan nan nan nan nan nan nan nan nan nan nan nan nan nan nan nan nan nan nan nan nan nan nan nan nan
nan nan nan nan nan nan nan nan nan nan nan nan nan nan nan nan nan nan nan nan nan nan nan nan nan nan nan nan nan nan 44 nan nan nan nan nan nan nan nan nan nan nan nan nan nan nan nan nan nan nan nan nan nan nan nan nan nan nan nan nan nan nan nan nan nan nan nan nan nan nan nan nan nan nan nan nan nan nan nan nan nan nan nan nan nan
nan nan nan nan nan nan nan nan nan nan nan nan nan nan nan nan nan nan nan nan nan nan nan nan nan nan nan nan nan 41 42 nan nan nan nan nan nan nan nan nan nan nan nan nan nan nan nan nan nan nan nan nan nan nan nan nan nan nan nan nan nan nan nan nan nan nan nan nan nan nan nan nan nan nan nan nan nan nan nan nan nan nan nan nan nan
nan nan nan nan nan nan nan nan nan nan nan nan nan nan nan nan nan nan nan nan nan nan nan nan nan nan nan nan nan nan nan nan nan nan nan nan nan nan nan nan nan nan nan nan nan nan nan nan nan nan nan nan nan nan nan nan nan nan nan nan nan nan nan nan nan nan nan nan nan nan nan nan nan nan nan nan nan nan nan nan nan nan nan nan nan
nan nan nan nan nan nan nan nan nan nan nan nan nan nan nan nan nan nan nan nan nan nan nan nan nan nan nan nan nan nan nan nan nan nan nan nan nan nan nan nan nan nan nan nan nan nan nan nan nan nan nan nan nan nan nan nan nan nan nan nan nan nan nan nan nan nan nan nan nan nan nan nan nan nan nan nan nan nan nan nan nan nan nan nan nan
Wind_Direction
292 287 283 284 287 290 292 292 297 291 292 291 289 287 284 286 287 286 284 288 289 294 294 294 293 295 300 303 313 313 318 324 324 320 313 308 311 322 325 319 325 331 338 354 2 6 2 0 356 352 353 356 358 356 349 342 337 334 329 328 330 330 329 332 338 343 329 330 nan nan 329 nan 329 330 329 328 320 322 325 325 324 323 322 324 324
289 286 283 285 296 296 298 296 297 295 303 301 301 295 291 289 289 287 292 291 291 293 294 292 290 292 295 298 301 307 310 316 323 320 315 308 310 309 320 320 320 322 327 347 356 3 358 357 357 353 351 357 356 356 351 346 344 342 339 337 332 329 328 329 336 336 337 328 332 329 325 324 nan 323 327 329 327 324 325 322 321 322 321 319 321
288 279 282 287 297 296 297 298 299 307 311 306 312 310 303 300 294 296 296 293 294 293 292 292 288 288 288 289 292 297 302 311 315 317 315 310 307 310 317 322 319 317 324 335 347 352 357 351 353 348 344 350 351 349 350 352 351 353 353 349 344 339 333 335 332 338 340 336 330 332 331 326 328 324 325 324 323 323 324 324 323 322 321 322 319
287 285 286 293 298 297 299 299 306 308 311 305 314 314 306 300 295 298 299 295 295 294 292 293 292 290 291 290 292 293 301 306 310 315 315 311 305 308 313 318 317 315 315 322 333 340 347 346 346 346 344 345 345 343 344 349 351 351 354 352 352 351 342 336 341 337 337 342 336 335 330 331 327 327 324 323 326 325 325 323 325 322 320 320 320
292 293 296 299 298 298 303 303 306 310 310 305 314 312 309 303 297 302 300 301 300 294 292 291 290 292 292 293 293 295 299 303 306 312 312 309 306 304 310 315 318 316 312 310 318 329 337 341 340 341 341 342 342 342 341 345 344 347 349 349 350 350 345 340 338 340 341 342 338 332 331 330 328 327 328 327 326 326 324 326 324 323 322 323 320
296 296 297 299 297 306 303 304 308 312 311 309 312 310 309 309 308 303 305 305 303 300 296 293 290 292 290 290 291 293 294 298 303 307 311 309 305 302 304 313 317 316 313 311 313 321 328 335 336 337 340 343 342 342 342 344 342 346 348 346 345 342 344 342 338 339 342 342 338 336 332 335 331 332 332 332 330 328 327 326 326 324 322 323 325
291 296 297 299 297 303 304 304 303 307 305 303 299 304 311 317 319 314 308 309 309 308 304 299 292 291 290 289 291 292 294 298 299 304 306 306 305 303 306 314 317 314 314 314 312 317 324 327 331 335 338 341 343 342 342 343 341 346 346 346 344 343 342 343 341 342 341 341 340 342 341 338 338 339 338 336 335 331 329 328 327 325 323 323 324
292 294 293 293 296 303 301 300 300 298 296 293 298 305 313 316 315 313 310 314 314 313 311 303 295 290 289 289 288 287 291 295 299 302 304 305 303 304 303 307 315 316 316 316 314 314 318 324 329 333 335 337 340 340 340 340 337 342 342 342 342 342 342 341 342 342 341 342 342 341 342 342 339 342 338 337 338 337 335 332 329 326 325 325 327
290 293 291 291 293 294 290 289 289 290 292 290 298 305 310 311 310 311 312 313 308 312 311 308 300 294 291 290 290 290 293 297 297 302 305 308 304 303 303 305 311 314 317 319 317 315 313 315 320 327 328 331 336 334 337 335 334 337 338 339 338 338 337 336 337 339 339 341 340 339 340 340 341 340 342 340 342 342 338 337 333 328 325 325 322
288 290 292 287 282 281 283 281 284 287 290 294 298 306 310 312 316 318 318 317 308 305 305 306 310 306 300 300 299 298 302 300 305 315 308 301 305 296 295 301 309 311 315 318 320 320 318 310 310 321 322 327 327 330 331 332 336 334 333 337 338 335 334 333 331 333 335 337 339 337 339 340 340 341 341 342 342 342 343 341 338 332 328 327 323
293 295 290 282 276 274 274 277 280 288 293 297 300 304 308 308 308 308 311 314 312 303 310 323 326 318 319 314 318 313 313 312 317 316 316 314 305 303 300 300 306 311 316 316 316 316 314 313 304 304 310 313 320 325 324 326 328 333 333 336 336 336 333 334 331 329 329 332 333 335 336 336 337 337 338 339 341 342 342 341 339 335 333 330 327
305 295 284 277 275 275 273 275 279 284 288 295 298 300 301 304 303 307 314 325 312 322 337 343 343 355 341 341 341 334 330 324 318 319 318 317 311 302 300 298 299 306 310 313 310 308 309 308 304 294 301 313 311 310 316 319 319 323 325 325 331 335 333 330 329 327 327 327 329 331 331 331 331 332 333 336 337 338 338 337 337 337 335 331 326
297 289 280 277 276 273 271 274 276 278 283 288 288 289 296 302 309 314 324 317 315 333 349 357 8 17 16 3 4 357 355 334 325 326 325 323 321 315 303 304 303 306 308 311 309 305 302 300 300 295 293 306 303 303 302 306 309 316 320 319 321 326 326 328 325 324 322 324 326 327 327 326 329 328 329 330 329 333 330 332 334 336 334 331 325
292 294 284 278 275 274 274 275 274 273 274 279 283 287 293 302 311 312 305 302 311 326 353 3 5 8 12 13 5 5 6 333 334 334 335 333 332 323 316 318 317 317 318 315 310 313 312 307 303 302 298 290 293 297 296 299 295 296 301 303 307 314 318 323 324 321 318 321 323 324 322 322 321 321 323 323 326 328 328 329 329 329 331 331 325
283 289 289 282 275 274 275 274 272 272 276 280 282 285 289 287 296 293 291 298 302 307 319 338 339 337 344 351 347 357 1 325 327 331 331 332 331 323 320 321 318 320 322 321 320 320 319 317 313 309 301 293 289 296 292 295 294 293 298 305 311 314 314 319 320 318 317 320 318 321 321 320 320 319 315 316 323 324 324 326 330 331 330 327 322
288 289 293 290 284 278 277 273 272 274 279 282 284 286 283 282 281 274 270 276 278 284 293 303 313 317 314 316 317 324 318 305 314 320 323 323 323 307 309 316 314 312 314 317 318 316 318 319 313 312 301 298 294 304 297 292 294 297 300 303 305 307 310 313 316 317 317 318 315 317 316 318 318 317 314 316 318 320 321 323 324 324 325 326 325
299 293 297 295 286 277 273 271 272 276 281 285 287 286 281 277 273 267 271 271 275 284 290 295 288 299 308 302 303 293 287 288 303 311 316 319 308 300 303 305 305 309 307 309 310 312 313 313 310 304 303 300 301 311 307 302 298 300 300 301 299 300 303 303 310 314 315 311 310 308 292 295 304 306 304 306 312 316 318 320 323 323 324 326 325
301 295 295 289 278 272 271 274 276 279 282 290 290 283 279 274 276 275 277 279 281 282 282 283 289 296 305 307 306 300 293 288 303 305 311 311 307 298 297 300 302 303 302 303 301 302 307 309 304 303 302 304 306 314 312 309 305 303 301 299 300 301 301 301 297 301 307 308 300 298 299 297 300 303 307 309 310 312 317 318 320 321 324 325 323
302 301 291 282 277 275 274 275 280 284 287 288 285 284 286 285 284 285 285 284 284 281 282 283 287 290 296 302 298 300 297 292 299 303 308 307 304 294 295 295 297 300 301 302 300 294 294 292 300 300 303 305 304 311 313 309 304 303 303 301 301 303 302 300 301 300 299 301 298 297 296 298 299 302 304 308 309 313 316 317 318 319 nan nan nan
289 288 284 280 276 273 273 277 280 283 285 285 283 284 285 288 292 293 292 287 286 287 287 286 290 289 290 294 290 297 298 287 291 304 304 307 313 299 296 296 300 305 306 303 299 295 291 287 290 303 306 306 302 307 307 309 300 296 296 296 300 305 299 299 299 297 297 302 304 302 301 300 302 302 303 305 307 311 314 315 316 315 317 nan nan
276 281 280 282 279 277 275 281 288 287 285 284 284 285 286 289 291 291 291 286 283 283 285 285 289 290 292 295 296 301 297 296 291 305 307 311 314 310 297 301 303 302 302 302 300 298 293 291 284 297 305 304 299 305 305 306 301 293 291 291 293 293 293 295 297 299 295 296 299 299 300 301 302 302 303 303 304 306 310 314 315 314 nan nan nan
268 274 276 277 278 279 283 284 289 287 285 283 284 287 287 288 288 290 287 284 285 284 285 286 287 289 291 294 296 297 297 298 289 301 310 312 311 316 298 298 298 296 298 297 301 302 302 295 289 291 300 300 297 300 302 302 303 294 295 292 290 290 293 291 290 288 290 291 293 294 297 300 300 299 303 302 301 304 309 312 313 312 nan nan nan
262 268 270 271 271 274 277 284 284 282 282 284 286 288 288 288 286 285 287 286 286 288 290 291 291 294 293 291 291 293 290 285 293 290 303 308 309 310 313 301 299 295 298 301 301 300 298 296 293 293 296 300 296 297 299 301 297 292 294 293 294 295 293 290 287 286 287 288 289 289 292 295 296 297 301 300 300 303 307 309 310 nan nan nan nan
258 264 266 267 268 270 275 280 281 278 281 281 283 285 288 288 284 282 284 287 286 289 290 292 294 296 296 292 289 287 283 283 287 293 295 306 305 310 311 311 300 294 296 296 294 292 293 292 290 290 294 299 298 297 298 298 295 299 294 294 295 295 291 291 286 287 286 286 286 288 290 290 292 293 295 294 nan 300 306 nan nan nan nan nan nan
256 259 263 267 268 270 273 275 279 279 280 284 286 288 291 291 289 285 284 285 286 286 288 290 292 294 294 291 287 286 284 283 281 291 301 301 306 307 310 310 306 297 289 289 288 286 286 287 287 288 293 297 297 295 293 297 299 297 294 291 291 286 287 290 286 287 288 287 287 288 289 287 287 286 289 291 291 293 299 300 nan nan nan nan nan
254 257 261 266 269 270 273 276 279 280 281 282 284 285 287 288 287 285 283 282 283 284 285 287 288 291 292 292 290 287 283 277 276 280 287 295 297 303 305 305 307 305 299 292 295 295 291 285 281 285 290 291 288 284 282 286 293 293 290 285 283 284 285 286 284 287 287 288 288 288 287 285 284 285 288 286 286 288 292 nan nan nan nan nan nan
252 255 259 262 265 267 272 274 276 278 278 277 278 280 281 282 281 282 281 281 282 282 285 287 289 291 291 289 286 283 282 281 280 282 282 284 288 292 295 296 303 303 298 293 294 289 289 287 283 286 287 292 293 293 292 289 286 284 280 279 281 283 284 284 283 284 285 285 286 285 283 283 284 285 283 283 284 283 285 289 nan nan nan nan nan
251 252 256 257 260 264 267 269 273 273 275 275 275 276 278 278 278 277 278 278 279 282 286 286 286 288 287 286 284 282 280 279 279 273 270 273 277 283 289 291 292 293 294 295 293 294 291 290 286 284 285 285 288 286 286 284 285 283 279 281 283 284 284 284 279 280 280 281 282 282 280 282 284 282 283 285 287 284 nan nan nan nan nan nan nan
248 251 252 254 256 259 262 264 266 269 270 271 264 259 260 266 266 270 263 263 265 267 271 273 274 273 272 270 270 270 269 269 271 271 273 280 285 283 285 290 290 288 292 297 292 291 288 283 281 285 287 290 290 290 289 286 281 284 283 283 282 283 282 280 280 280 278 277 279 280 282 284 285 285 nan nan 288 nan nan nan nan nan nan nan nan
248 248 250 253 257 258 260 261 261 262 265 267 265 260 256 258 258 261 265 265 265 265 267 272 272 271 270 271 272 272 271 271 267 264 268 271 277 286 289 285 284 289 294 298 294 288 285 285 288 290 291 290 290 291 291 290 286 284 283 285 283 283 282 280 278 279 277 276 276 277 281 281 nan nan nan nan nan nan nan nan nan nan nan nan nan
247 248 250 249 246 250 253 253 257 256 258 258 260 264 264 259 258 263 267 270 271 272 274 277 274 269 267 267 267 nan nan nan nan nan nan nan nan nan nan nan nan 290 289 290 293 293 291 292 294 293 292 293 292 292 291 289 286 284 284 283 282 280 280 277 277 275 274 273 273 275 278 nan nan nan nan nan nan nan nan nan nan nan nan nan nan
250 251 252 252 250 253 255 255 255 258 258 259 260 261 263 264 264 261 264 269 272 275 276 275 nan nan nan nan nan nan nan nan nan nan nan nan nan nan nan nan nan nan nan nan 292 296 299 298 297 297 296 294 293 291 289 288 286 285 284 283 283 282 282 280 277 273 271 272 273 275 277 nan nan nan nan nan nan nan nan nan nan nan nan nan nan
254 255 256 257 257 258 260 259 260 260 261 262 262 262 265 267 269 271 268 nan 268 269 nan nan nan nan nan nan nan nan nan nan nan nan nan nan nan nan nan nan nan nan nan nan nan nan 300 301 300 300 298 297 294 291 288 286 284 282 281 280 280 279 278 276 275 270 266 267 270 272 nan nan nan nan nan nan nan nan nan nan nan nan nan nan nan
253 254 255 256 256 256 256 257 257 258 257 259 262 263 263 264 266 267 271 273 271 269 270 270 nan nan nan nan nan nan nan nan nan nan nan nan nan nan nan nan nan nan nan nan nan nan 300 303 305 306 305 302 298 292 288 285 282 280 278 278 276 275 274 272 272 269 264 263 265 nan nan nan nan nan nan nan nan nan nan nan nan nan nan nan nan
249 249 250 252 253 254 255 256 257 258 259 260 261 263 265 266 267 268 268 268 268 270 273 274 279 nan nan nan nan nan nan nan nan nan nan nan nan nan nan nan nan nan nan nan nan nan nan nan 311 309 307 305 300 293 287 283 279 277 277 277 277 274 269 267 267 268 265 nan 261 nan nan nan nan nan nan nan nan nan nan nan nan nan nan nan nan
249 249 250 250 251 253 253 254 255 256 258 259 260 261 263 264 267 269 270 269 270 271 273 273 273 273 nan nan nan nan nan nan nan nan nan nan nan nan nan nan nan nan nan nan nan nan nan nan nan 308 304 302 298 289 277 271 267 267 274 280 276 270 262 258 258 nan 260 nan nan nan nan nan nan nan nan nan nan nan nan nan nan nan nan nan nan
248 249 249 250 252 253 253 255 255 257 257 260 263 266 267 268 269 270 271 271 272 273 274 274 274 274 275 275 nan nan nan nan nan nan nan nan nan nan nan nan nan nan nan nan nan nan nan nan nan nan 302 299 292 286 279 272 265 261 259 264 269 267 263 nan nan nan nan nan nan nan nan nan nan nan nan nan nan nan nan nan nan nan nan nan nan
248 250 252 253 255 255 257 259 263 266 266 267 267 268 270 271 272 272 273 274 275 275 274 275 274 274 273 nan nan nan nan nan nan nan nan nan nan nan nan nan nan nan nan nan nan nan nan nan nan 312 nan nan 291 283 269 265 263 260 263 269 267 264 nan nan nan nan nan nan nan nan nan nan nan nan nan nan nan nan nan nan nan nan nan nan nan
248 247 247 247 255 259 261 263 264 264 265 266 267 268 268 269 271 273 275 275 275 275 276 274 274 nan nan nan nan nan nan 276 nan nan nan nan 277 nan nan nan nan nan nan nan nan nan nan nan nan nan nan nan nan 291 267 255 253 257 257 254 252 nan nan nan nan nan nan nan nan nan nan nan nan nan nan nan nan nan nan nan nan nan nan nan nan
251 252 254 258 259 259 262 263 264 264 264 265 266 267 268 269 271 273 273 274 274 275 275 274 nan 273 nan nan nan nan nan nan nan nan nan nan nan nan nan nan 289 nan nan nan nan nan nan nan nan nan nan nan nan 305 280 271 261 nan 238 235 nan nan nan nan nan nan nan nan nan nan nan nan nan nan nan nan nan nan nan nan nan nan nan nan nan
252 253 254 253 257 261 261 263 263 264 265 265 266 268 269 270 272 273 272 272 272 274 275 274 276 276 nan nan nan nan nan 277 nan nan nan nan nan nan nan nan nan nan nan nan nan nan nan nan nan nan nan nan nan nan nan 235 nan nan nan nan nan nan nan nan nan nan nan nan nan nan nan nan nan nan nan nan nan nan nan nan nan nan nan nan nan
251 254 254 256 257 259 261 263 266 266 267 269 269 269 270 271 272 272 272 271 271 272 273 nan 274 274 280 nan nan nan 281 nan nan nan nan nan nan nan nan nan nan nan nan nan nan nan nan nan nan nan nan nan nan nan nan nan nan nan nan nan nan nan nan nan nan nan nan nan nan nan nan nan nan nan nan nan nan nan nan nan nan nan nan nan nan
248 250 252 255 257 259 261 262 262 266 268 268 270 nan nan nan 272 nan 271 nan nan nan nan nan nan nan 276 nan nan nan nan nan nan nan nan nan nan nan nan nan nan nan nan nan nan nan nan nan nan nan nan nan nan nan nan nan nan nan nan nan nan nan nan nan nan nan nan nan nan nan nan nan nan nan nan nan nan nan nan nan nan nan nan nan nan
249 251 254 256 258 258 257 259 263 265 268 269 nan nan nan nan nan nan nan nan nan nan nan nan nan nan 275 282 282 nan nan nan nan nan 284 nan nan nan nan nan nan nan nan nan nan nan nan nan nan nan nan nan nan nan nan nan nan nan nan nan nan nan nan nan nan nan nan nan nan nan nan nan nan nan nan nan nan nan nan nan nan nan nan nan nan
250 252 254 256 257 258 260 262 nan 267 268 270 271 nan nan nan nan nan nan nan nan nan nan nan nan nan nan 276 nan nan nan nan nan nan nan nan nan nan nan nan nan nan nan nan nan nan nan nan nan nan nan nan nan nan nan nan nan nan nan nan nan nan nan nan nan nan nan nan nan nan nan nan nan nan nan nan nan nan nan nan nan nan nan nan nan
251 253 nan nan nan nan nan 263 nan nan nan nan nan nan nan nan nan nan nan nan nan nan nan nan nan nan nan nan nan nan nan nan nan nan nan nan nan nan nan 298 nan nan nan nan nan nan nan nan nan nan nan nan nan nan nan nan nan nan nan nan nan nan nan nan nan nan nan nan nan nan nan nan nan nan nan nan nan nan nan nan nan nan nan nan nan
nan nan nan nan nan nan nan nan nan nan nan nan nan nan nan nan nan nan nan nan nan nan nan nan nan nan nan nan nan nan nan nan nan nan nan nan nan nan nan nan nan nan nan nan nan nan nan nan nan nan nan nan nan nan nan nan nan nan nan nan nan nan nan nan nan nan nan nan nan nan nan nan nan nan nan nan nan nan nan nan nan nan nan nan nan
nan nan nan nan nan nan nan nan nan nan nan nan nan nan nan nan nan nan nan nan nan nan nan nan nan nan nan nan nan nan 276 nan nan nan nan nan nan nan nan nan nan nan nan nan nan nan nan nan nan nan nan nan nan nan nan nan nan nan nan nan nan nan nan nan nan nan nan nan nan nan nan nan nan nan nan nan nan nan nan nan nan nan nan nan nan
nan nan nan nan nan nan nan nan nan nan nan nan nan nan nan nan nan nan nan nan nan nan nan nan nan nan nan nan nan 272 275 nan nan nan nan nan nan nan nan nan nan nan nan nan nan nan nan nan nan nan nan nan nan nan nan nan nan nan nan nan nan nan nan nan nan nan nan nan nan nan nan nan nan nan nan nan nan nan nan nan nan nan nan nan nan
nan nan nan nan nan nan nan nan nan nan nan nan nan nan nan nan nan nan nan nan nan nan nan nan nan nan nan nan nan nan nan nan nan nan nan nan nan nan nan nan nan nan nan nan nan nan nan nan nan nan nan nan nan nan nan nan nan nan nan nan nan nan nan nan nan nan nan nan nan nan nan nan nan nan nan nan nan nan nan nan nan nan nan nan nan
nan nan nan nan nan nan nan nan nan nan nan nan nan nan nan nan nan nan nan nan nan nan nan nan nan nan nan nan nan nan nan nan nan nan nan nan nan nan nan nan nan nan nan nan nan nan nan nan nan nan nan nan nan nan nan nan nan nan nan nan nan nan nan nan nan nan nan nan nan nan nan nan nan nan nan nan nan nan nan nan nan nan nan nan nan